Time,TemperatureF,DewpointF,PressureIn,WindDirection,WindDirectionDegrees,WindSpeedMPH,WindSpeedGustMPH,Humidity,HourlyPrecipIn,Conditions,Clouds,dailyrainin,SoftwareType,DateUTC
2013-03-02 00:02:00,51.7,20.4,30.30,SW,221,5.0,5.0,29,0.00,,,0.00,Wunderground v.1.15,2013-03-02 08:02:00,
2013-03-02 00:08:00,52.1,19.9,30.30,SW,221,5.0,6.0,28,0.00,,,0.00,Wunderground v.1.15,2013-03-02 08:08:00,
2013-03-02 00:14:00,52.5,20.3,30.30,SW,221,4.0,5.0,28,0.00,,,0.00,Wunderground v.1.15,2013-03-02 08:14:00,
2013-03-02 00:20:00,52.8,20.5,30.29,SW,221,3.0,3.0,28,0.00,,,0.00,Wunderground v.1.15,2013-03-02 08:20:00,
2013-03-02 00:26:00,53.1,20.8,30.29,SW,221,1.0,3.0,28,0.00,,,0.00,Wunderground v.1.15,2013-03-02 08:26:00,
2013-03-02 00:32:00,53.6,20.4,30.29,SW,221,1.0,3.0,27,0.00,,,0.00,Wunderground v.1.15,2013-03-02 08:32:00,
2013-03-02 00:38:00,53.7,20.5,30.29,SW,221,2.0,3.0,27,0.00,,,0.00,Wunderground v.1.15,2013-03-02 08:38:00,
2013-03-02 00:44:00,53.6,20.4,30.29,SW,221,2.0,2.0,27,0.00,,,0.00,Wunderground v.1.15,2013-03-02 08:44:00,
2013-03-02 00:50:00,53.3,20.1,30.29,SW,221,2.0,2.0,27,0.00,,,0.00,Wunderground v.1.15,2013-03-02 08:50:00,
2013-03-02 00:56:00,52.9,19.8,30.29,SW,221,1.0,2.0,27,0.00,,,0.00,Wunderground v.1.15,2013-03-02 08:56:00,
2013-03-02 01:02:00,52.6,19.5,30.29,SW,221,2.0,2.0,27,0.00,,,0.00,Wunderground v.1.15,2013-03-02 09:02:00,
2013-03-02 01:08:00,52.2,19.2,30.29,SW,221,2.0,3.0,27,0.00,,,0.00,Wunderground v.1.15,2013-03-02 09:08:00,
2013-03-02 01:14:00,51.8,19.7,30.29,SW,221,3.0,3.0,28,0.00,,,0.00,Wunderground v.1.15,2013-03-02 09:14:00,
2013-03-02 01:20:00,51.5,19.4,30.29,SW,221,3.0,3.0,28,0.00,,,0.00,Wunderground v.1.15,2013-03-02 09:20:00,
2013-03-02 01:26:00,51.4,20.2,30.29,SW,221,3.0,3.0,29,0.00,,,0.00,Wunderground v.1.15,2013-03-02 09:26:00,
2013-03-02 01:32:00,51.2,19.2,30.28,SW,221,3.0,3.0,28,0.00,,,0.00,Wunderground v.1.15,2013-03-02 09:32:00,
2013-03-02 01:38:00,51.1,19.1,30.28,SW,221,2.0,3.0,28,0.00,,,0.00,Wunderground v.1.15,2013-03-02 09:38:00,
2013-03-02 01:44:00,51.1,19.1,30.28,SW,221,2.0,2.0,28,0.00,,,0.00,Wunderground v.1.15,2013-03-02 09:44:00,
2013-03-02 01:50:00,51.0,19.0,30.28,SW,221,1.0,1.0,28,0.00,,,0.00,Wunderground v.1.15,2013-03-02 09:50:00,
2013-03-02 01:56:00,50.9,19.7,30.27,SW,221,2.0,3.0,29,0.00,,,0.00,Wunderground v.1.15,2013-03-02 09:56:00,
2013-03-02 02:02:00,51.1,19.9,30.27,SW,221,2.0,2.0,29,0.00,,,0.00,Wunderground v.1.15,2013-03-02 10:02:00,
2013-03-02 02:10:00,51.2,20.0,30.27,SW,221,1.0,1.0,29,0.00,,,0.00,Wunderground v.1.15,2013-03-02 10:10:00,
2013-03-02 02:16:00,51.2,20.0,30.27,SW,221,1.0,2.0,29,0.00,,,0.00,Wunderground v.1.15,2013-03-02 10:16:00,
2013-03-02 02:22:00,51.3,20.1,30.27,SW,221,1.0,1.0,29,0.00,,,0.00,Wunderground v.1.15,2013-03-02 10:22:00,
2013-03-02 02:28:00,51.2,20.0,30.27,SW,221,0.0,1.0,29,0.00,,,0.00,Wunderground v.1.15,2013-03-02 10:28:00,
2013-03-02 02:34:00,51.2,20.0,30.27,SW,221,0.0,0.0,29,0.00,,,0.00,Wunderground v.1.15,2013-03-02 10:34:00,
2013-03-02 02:40:00,51.1,19.9,30.26,SW,221,0.0,0.0,29,0.00,,,0.00,Wunderground v.1.15,2013-03-02 10:40:00,
2013-03-02 02:46:00,50.9,19.7,30.26,SW,221,0.0,0.0,29,0.00,,,0.00,Wunderground v.1.15,2013-03-02 10:46:00,
2013-03-02 02:52:00,50.6,19.5,30.26,SW,221,0.0,0.0,29,0.00,,,0.00,Wunderground v.1.15,2013-03-02 10:52:00,
2013-03-02 02:58:00,50.2,19.1,30.26,SW,221,0.0,0.0,29,0.00,,,0.00,Wunderground v.1.15,2013-03-02 10:58:00,
2013-03-02 03:04:00,49.8,18.8,30.26,SW,221,0.0,0.0,29,0.00,,,0.00,Wunderground v.1.15,2013-03-02 11:04:00,
2013-03-02 03:10:00,49.4,19.2,30.26,SW,221,0.0,0.0,30,0.00,,,0.00,Wunderground v.1.15,2013-03-02 11:10:00,
2013-03-02 03:16:00,49.2,19.0,30.25,SW,221,0.0,0.0,30,0.00,,,0.00,Wunderground v.1.15,2013-03-02 11:16:00,
2013-03-02 03:22:00,49.1,19.0,30.25,SW,221,0.0,0.0,30,0.00,,,0.00,Wunderground v.1.15,2013-03-02 11:22:00,
2013-03-02 03:28:00,49.2,19.0,30.25,SW,221,1.0,4.0,30,0.00,,,0.00,Wunderground v.1.15,2013-03-02 11:28:00,
2013-03-02 03:34:00,49.2,19.0,30.25,SW,221,2.0,2.0,30,0.00,,,0.00,Wunderground v.1.15,2013-03-02 11:34:00,
2013-03-02 03:40:00,49.2,19.0,30.25,SW,221,2.0,5.0,30,0.00,,,0.00,Wunderground v.1.15,2013-03-02 11:40:00,
2013-03-02 03:46:00,49.3,19.1,30.25,SW,221,3.0,5.0,30,0.00,,,0.00,Wunderground v.1.15,2013-03-02 11:46:00,
2013-03-02 03:52:00,49.3,19.1,30.25,SW,221,3.0,4.0,30,0.00,,,0.00,Wunderground v.1.15,2013-03-02 11:52:00,
2013-03-02 03:58:00,49.2,19.0,30.25,SW,221,2.0,4.0,30,0.00,,,0.00,Wunderground v.1.15,2013-03-02 11:58:00,
2013-03-02 04:04:00,49.0,19.6,30.25,SW,221,1.0,1.0,31,0.00,,,0.00,Wunderground v.1.15,2013-03-02 12:04:00,
2013-03-02 04:10:00,48.9,19.5,30.25,SW,221,0.0,0.0,31,0.00,,,0.00,Wunderground v.1.15,2013-03-02 12:10:00,
2013-03-02 04:16:00,48.9,19.5,30.25,SW,221,0.0,0.0,31,0.00,,,0.00,Wunderground v.1.15,2013-03-02 12:16:00,
2013-03-02 04:22:00,49.0,19.6,30.25,SW,221,0.0,1.0,31,0.00,,,0.00,Wunderground v.1.15,2013-03-02 12:22:00,
2013-03-02 04:28:00,49.1,19.7,30.25,SW,221,0.0,1.0,31,0.00,,,0.00,Wunderground v.1.15,2013-03-02 12:28:00,
2013-03-02 04:34:00,49.1,19.7,30.25,SW,221,1.0,1.0,31,0.00,,,0.00,Wunderground v.1.15,2013-03-02 12:34:00,
2013-03-02 04:40:00,49.0,19.6,30.25,SW,221,0.0,0.0,31,0.00,,,0.00,Wunderground v.1.15,2013-03-02 12:40:00,
2013-03-02 04:46:00,48.8,19.5,30.25,SW,221,1.0,1.0,31,0.00,,,0.00,Wunderground v.1.15,2013-03-02 12:46:00,
2013-03-02 04:52:00,48.0,18.8,30.25,SW,221,0.0,1.0,31,0.00,,,0.00,Wunderground v.1.15,2013-03-02 12:52:00,
2013-03-02 04:58:00,47.1,18.0,30.25,SW,221,0.0,1.0,31,0.00,,,0.00,Wunderground v.1.15,2013-03-02 12:58:00,
2013-03-02 05:04:00,46.3,18.0,30.25,SW,221,1.0,2.0,32,0.00,,,0.00,Wunderground v.1.15,2013-03-02 13:04:00,
2013-03-02 05:10:00,45.9,17.7,30.25,SW,221,0.0,0.0,32,0.00,,,0.00,Wunderground v.1.15,2013-03-02 13:10:00,
2013-03-02 05:16:00,45.4,17.9,30.25,SW,221,1.0,1.0,33,0.00,,,0.00,Wunderground v.1.15,2013-03-02 13:16:00,
2013-03-02 05:22:00,45.2,18.5,30.26,SW,221,1.0,1.0,34,0.00,,,0.00,Wunderground v.1.15,2013-03-02 13:22:00,
2013-03-02 05:28:00,45.1,18.4,30.25,SW,221,0.0,1.0,34,0.00,,,0.00,Wunderground v.1.15,2013-03-02 13:28:00,
2013-03-02 05:34:00,45.1,18.4,30.25,SW,221,0.0,0.0,34,0.00,,,0.00,Wunderground v.1.15,2013-03-02 13:34:00,
2013-03-02 05:40:00,45.1,18.4,30.26,SW,221,0.0,0.0,34,0.00,,,0.00,Wunderground v.1.15,2013-03-02 13:40:00,
2013-03-02 05:46:00,45.0,17.6,30.26,SW,221,0.0,1.0,33,0.00,,,0.00,Wunderground v.1.15,2013-03-02 13:46:00,
2013-03-02 05:54:00,44.7,18.0,30.26,SW,221,0.0,0.0,34,0.00,,,0.00,Wunderground v.1.15,2013-03-02 13:54:00,
2013-03-02 06:00:00,44.5,18.5,30.26,SW,221,0.0,0.0,35,0.00,,,0.00,Wunderground v.1.15,2013-03-02 14:00:00,
2013-03-02 06:06:00,44.4,17.7,30.26,SW,221,0.0,0.0,34,0.00,,,0.00,Wunderground v.1.15,2013-03-02 14:06:00,
2013-03-02 06:12:00,44.2,18.2,30.26,SW,221,0.0,0.0,35,0.00,,,0.00,Wunderground v.1.15,2013-03-02 14:12:00,
2013-03-02 06:18:00,44.1,18.2,30.26,SW,221,0.0,0.0,35,0.00,,,0.00,Wunderground v.1.15,2013-03-02 14:18:00,
2013-03-02 06:24:00,44.0,18.1,30.26,SW,221,0.0,0.0,35,0.00,,,0.00,Wunderground v.1.15,2013-03-02 14:24:00,
2013-03-02 06:30:00,43.8,17.9,30.26,SW,221,0.0,0.0,35,0.00,,,0.00,Wunderground v.1.15,2013-03-02 14:30:00,
2013-03-02 06:36:00,43.6,18.4,30.26,SW,221,0.0,0.0,36,0.00,,,0.00,Wunderground v.1.15,2013-03-02 14:36:00,
2013-03-02 06:42:00,43.4,17.5,30.26,SW,221,0.0,1.0,35,0.00,,,0.00,Wunderground v.1.15,2013-03-02 14:42:00,
2013-03-02 06:48:00,43.3,18.1,30.26,SW,221,1.0,2.0,36,0.00,,,0.00,Wunderground v.1.15,2013-03-02 14:48:00,
2013-03-02 06:54:00,43.5,18.9,30.26,SW,221,1.0,1.0,37,0.00,,,0.00,Wunderground v.1.15,2013-03-02 14:54:00,
2013-03-02 07:00:00,43.7,19.1,30.26,SW,221,0.0,0.0,37,0.00,,,0.00,Wunderground v.1.15,2013-03-02 15:00:00,
2013-03-02 07:06:00,44.1,18.8,30.26,SW,221,1.0,1.0,36,0.00,,,0.00,Wunderground v.1.15,2013-03-02 15:06:00,
2013-03-02 07:12:00,44.6,19.3,30.26,SW,221,1.0,1.0,36,0.00,,,0.00,Wunderground v.1.15,2013-03-02 15:12:00,
2013-03-02 07:18:00,45.2,19.8,30.27,SW,221,1.0,2.0,36,0.00,,,0.00,Wunderground v.1.15,2013-03-02 15:18:00,
2013-03-02 07:24:00,46.0,19.8,30.27,SW,221,1.0,2.0,35,0.00,,,0.00,Wunderground v.1.15,2013-03-02 15:24:00,
2013-03-02 07:30:00,48.0,21.6,30.26,SW,221,1.0,1.0,35,0.00,,,0.00,Wunderground v.1.15,2013-03-02 15:30:00,
2013-03-02 07:36:00,49.9,21.9,30.27,SW,221,0.0,1.0,33,0.00,,,0.00,Wunderground v.1.15,2013-03-02 15:36:00,
2013-03-02 07:42:00,50.9,22.1,30.27,SW,221,0.0,0.0,32,0.00,,,0.00,Wunderground v.1.15,2013-03-02 15:42:00,
2013-03-02 07:48:00,52.8,22.2,30.27,SW,221,0.0,0.0,30,0.00,,,0.00,Wunderground v.1.15,2013-03-02 15:48:00,
2013-03-02 07:54:00,54.0,22.4,30.27,SW,221,0.0,0.0,29,0.00,,,0.00,Wunderground v.1.15,2013-03-02 15:54:00,
2013-03-02 08:00:00,55.2,22.6,30.27,SW,221,0.0,0.0,28,0.00,,,0.00,Wunderground v.1.15,2013-03-02 16:00:00,
2013-03-02 08:06:00,56.4,22.8,30.27,SW,221,0.0,1.0,27,0.00,,,0.00,Wunderground v.1.15,2013-03-02 16:06:00,
2013-03-02 08:12:00,57.4,23.7,30.27,SW,221,0.0,0.0,27,0.00,,,0.00,Wunderground v.1.15,2013-03-02 16:12:00,
2013-03-02 08:18:00,58.1,23.3,30.28,SW,221,1.0,1.0,26,0.00,,,0.00,Wunderground v.1.15,2013-03-02 16:18:00,
2013-03-02 08:24:00,58.7,23.9,30.27,SW,221,1.0,1.0,26,0.00,,,0.00,Wunderground v.1.15,2013-03-02 16:24:00,
2013-03-02 08:30:00,59.0,23.2,30.27,SW,221,1.0,1.0,25,0.00,,,0.00,Wunderground v.1.15,2013-03-02 16:30:00,
2013-03-02 08:36:00,59.0,23.2,30.27,SW,221,1.0,1.0,25,0.00,,,0.00,Wunderground v.1.15,2013-03-02 16:36:00,
2013-03-02 08:42:00,59.4,23.5,30.27,SW,221,0.0,0.0,25,0.00,,,0.00,Wunderground v.1.15,2013-03-02 16:42:00,
2013-03-02 08:48:00,60.0,24.0,30.26,SW,221,0.0,0.0,25,0.00,,,0.00,Wunderground v.1.15,2013-03-02 16:48:00,
2013-03-02 08:54:00,60.6,24.5,30.26,SW,221,0.0,0.0,25,0.00,,,0.00,Wunderground v.1.15,2013-03-02 16:54:00,
2013-03-02 09:00:00,61.6,24.4,30.26,SW,221,0.0,0.0,24,0.00,,,0.00,Wunderground v.1.15,2013-03-02 17:00:00,
2013-03-02 09:06:00,62.4,25.1,30.26,SW,221,0.0,1.0,24,0.00,,,0.00,Wunderground v.1.15,2013-03-02 17:06:00,
2013-03-02 09:12:00,63.3,24.8,30.27,SW,221,0.0,0.0,23,0.00,,,0.00,Wunderground v.1.15,2013-03-02 17:12:00,
2013-03-02 09:18:00,64.1,25.5,30.26,SW,221,0.0,0.0,23,0.00,,,0.00,Wunderground v.1.15,2013-03-02 17:18:00,
2013-03-02 09:24:00,64.9,25.1,30.26,SW,221,0.0,0.0,22,0.00,,,0.00,Wunderground v.1.15,2013-03-02 17:24:00,
2013-03-02 09:30:00,66.4,25.2,30.26,SW,221,1.0,3.0,21,0.00,,,0.00,Wunderground v.1.15,2013-03-02 17:30:00,
2013-03-02 09:36:00,67.1,25.8,30.26,SW,221,2.0,3.0,21,0.00,,,0.00,Wunderground v.1.15,2013-03-02 17:36:00,
2013-03-02 13:27:00,79.2,29.1,30.12,NW,311,5.0,5.0,16,0.00,,,0.00,Wunderground v.1.15,2013-03-02 21:27:00,
2013-03-02 13:32:00,79.6,29.4,30.11,NNW,328,4.0,7.0,16,0.00,,,0.00,Wunderground v.1.15,2013-03-02 21:32:00,
2013-03-02 13:38:00,80.0,29.8,30.11,NW,317,5.0,5.0,16,0.00,,,0.00,Wunderground v.1.15,2013-03-02 21:38:00,
2013-03-02 13:44:00,80.0,28.2,30.10,WNW,288,4.0,5.0,15,0.00,,,0.00,Wunderground v.1.15,2013-03-02 21:44:00,
2013-03-02 13:50:00,80.0,29.8,30.10,WNW,292,3.0,5.0,16,0.00,,,0.00,Wunderground v.1.15,2013-03-02 21:50:00,
2013-03-02 13:56:00,80.4,28.5,30.10,SW,236,5.0,7.0,15,0.00,,,0.00,Wunderground v.1.15,2013-03-02 21:56:00,
2013-03-02 14:02:00,80.2,28.3,30.10,SSW,202,8.0,8.0,15,0.00,,,0.00,Wunderground v.1.15,2013-03-02 22:02:00,
2013-03-02 14:08:00,79.8,28.0,30.09,SW,217,7.0,8.0,15,0.00,,,0.00,Wunderground v.1.15,2013-03-02 22:08:00,
2013-03-02 14:14:00,78.9,27.3,30.09,SSW,207,8.0,10.0,15,0.00,,,0.00,Wunderground v.1.15,2013-03-02 22:14:00,
2013-03-02 14:20:00,79.0,27.4,30.09,SSW,200,9.0,9.0,15,0.00,,,0.00,Wunderground v.1.15,2013-03-02 22:20:00,
2013-03-02 14:26:00,79.0,27.4,30.09,South,189,9.0,12.0,15,0.00,,,0.00,Wunderground v.1.15,2013-03-02 22:26:00,
2013-03-02 14:32:00,78.7,27.1,30.08,SSW,207,9.0,13.0,15,0.00,,,0.00,Wunderground v.1.15,2013-03-02 22:32:00,
2013-03-02 14:38:00,78.7,27.1,30.08,SW,222,9.0,13.0,15,0.00,,,0.00,Wunderground v.1.15,2013-03-02 22:38:00,
2013-03-02 14:44:00,78.7,27.1,30.08,SW,227,8.0,9.0,15,0.00,,,0.00,Wunderground v.1.15,2013-03-02 22:44:00,
2013-03-02 14:50:00,78.6,25.4,30.08,South,179,8.0,10.0,14,0.00,,,0.00,Wunderground v.1.15,2013-03-02 22:50:00,
2013-03-02 14:56:00,78.0,26.6,30.08,SSW,194,8.0,10.0,15,0.00,,,0.00,Wunderground v.1.15,2013-03-02 22:56:00,
2013-03-02 15:02:00,77.4,24.4,30.08,South,183,9.0,11.0,14,0.00,,,0.00,Wunderground v.1.15,2013-03-02 23:02:00,
2013-03-02 15:08:00,76.9,24.0,30.07,SSW,192,10.0,11.0,14,0.00,,,0.00,Wunderground v.1.15,2013-03-02 23:08:00,
2013-03-02 15:14:00,76.6,23.8,30.07,South,178,10.0,12.0,14,0.00,,,0.00,Wunderground v.1.15,2013-03-02 23:14:00,
2013-03-02 15:20:00,76.5,25.4,30.06,SSW,199,11.0,14.0,15,0.00,,,0.00,Wunderground v.1.15,2013-03-02 23:20:00,
2013-03-02 15:26:00,76.5,23.7,30.06,SSW,192,11.0,14.0,14,0.00,,,0.00,Wunderground v.1.15,2013-03-02 23:26:00,
2013-03-02 15:32:00,76.5,25.4,30.06,SSW,201,10.0,11.0,15,0.00,,,0.00,Wunderground v.1.15,2013-03-02 23:32:00,
2013-03-02 15:38:00,76.4,25.3,30.06,SSW,203,9.0,11.0,15,0.00,,,0.00,Wunderground v.1.15,2013-03-02 23:38:00,
2013-03-02 15:44:00,76.0,25.0,30.05,SSW,202,10.0,12.0,15,0.00,,,0.00,Wunderground v.1.15,2013-03-02 23:44:00,
2013-03-02 15:50:00,75.7,24.7,30.05,South,187,10.0,15.0,15,0.00,,,0.00,Wunderground v.1.15,2013-03-02 23:50:00,
2013-03-02 15:56:00,75.4,24.5,30.04,South,184,11.0,15.0,15,0.00,,,0.00,Wunderground v.1.15,2013-03-02 23:56:00,
2013-03-02 16:02:00,75.2,24.3,30.04,SSW,192,10.0,12.0,15,0.00,,,0.00,Wunderground v.1.15,2013-03-03 00:02:00,
2013-03-02 16:08:00,75.1,24.3,30.04,SSW,195,10.0,14.0,15,0.00,,,0.00,Wunderground v.1.15,2013-03-03 00:08:00,
2013-03-02 16:14:00,74.9,24.1,30.04,South,186,12.0,14.0,15,0.00,,,0.00,Wunderground v.1.15,2013-03-03 00:14:00,
2013-03-02 16:20:00,74.6,23.9,30.04,South,188,13.0,13.0,15,0.00,,,0.00,Wunderground v.1.15,2013-03-03 00:20:00,
2013-03-02 16:26:00,74.4,23.7,30.04,South,188,12.0,19.0,15,0.00,,,0.00,Wunderground v.1.15,2013-03-03 00:26:00,
2013-03-02 16:32:00,74.3,25.2,30.03,SSW,197,14.0,16.0,16,0.00,,,0.00,Wunderground v.1.15,2013-03-03 00:32:00,
2013-03-02 16:38:00,74.6,25.4,30.03,South,184,15.0,16.0,16,0.00,,,0.00,Wunderground v.1.15,2013-03-03 00:38:00,
2013-03-02 16:44:00,74.7,25.5,30.03,SSW,192,14.0,15.0,16,0.00,,,0.00,Wunderground v.1.15,2013-03-03 00:44:00,
2013-03-02 16:50:00,74.5,25.3,30.03,SSW,204,14.0,14.0,16,0.00,,,0.00,Wunderground v.1.15,2013-03-03 00:50:00,
2013-03-02 16:56:00,74.3,25.2,30.03,South,181,14.0,16.0,16,0.00,,,0.00,Wunderground v.1.15,2013-03-03 00:56:00,
2013-03-02 17:02:00,74.0,24.9,30.03,SSW,192,13.0,14.0,16,0.00,,,0.00,Wunderground v.1.15,2013-03-03 01:02:00,
2013-03-02 17:08:00,73.5,24.5,30.02,South,186,13.0,18.0,16,0.00,,,0.00,Wunderground v.1.15,2013-03-03 01:08:00,
2013-03-02 17:14:00,73.0,24.1,30.03,SSW,201,15.0,18.0,16,0.00,,,0.00,Wunderground v.1.15,2013-03-03 01:14:00,
2013-03-02 17:20:00,72.6,23.8,30.03,South,183,15.0,15.0,16,0.00,,,0.00,Wunderground v.1.15,2013-03-03 01:20:00,
2013-03-02 17:26:00,72.3,25.0,30.03,South,188,15.0,15.0,17,0.00,,,0.00,Wunderground v.1.15,2013-03-03 01:26:00,
2013-03-02 17:32:00,72.0,24.8,30.03,South,186,14.0,20.0,17,0.00,,,0.00,Wunderground v.1.15,2013-03-03 01:32:00,
2013-03-02 17:38:00,71.7,24.5,30.03,SSW,194,16.0,20.0,17,0.00,,,0.00,Wunderground v.1.15,2013-03-03 01:38:00,
2013-03-02 17:44:00,71.5,25.7,30.03,SSW,194,18.0,19.0,18,0.00,,,0.00,Wunderground v.1.15,2013-03-03 01:44:00,
2013-03-02 17:50:00,71.3,25.6,30.03,South,190,17.0,17.0,18,0.00,,,0.00,Wunderground v.1.15,2013-03-03 01:50:00,
2013-03-02 17:58:00,71.0,25.3,30.02,SSW,196,16.0,17.0,18,0.00,,,0.00,Wunderground v.1.15,2013-03-03 01:58:00,
2013-03-02 18:04:00,70.7,25.1,30.02,South,190,16.0,16.0,18,0.00,,,0.00,Wunderground v.1.15,2013-03-03 02:04:00,
2013-03-02 18:10:00,70.5,24.9,30.02,South,173,16.0,16.0,18,0.00,,,0.00,Wunderground v.1.15,2013-03-03 02:10:00,
2013-03-02 18:16:00,70.3,24.8,30.02,South,183,15.0,16.0,18,0.00,,,0.00,Wunderground v.1.15,2013-03-03 02:16:00,
2013-03-02 18:22:00,70.0,24.5,30.02,South,189,13.0,16.0,18,0.00,,,0.00,Wunderground v.1.15,2013-03-03 02:22:00,
2013-03-02 18:28:00,69.8,24.3,30.02,South,186,13.0,16.0,18,0.00,,,0.00,Wunderground v.1.15,2013-03-03 02:28:00,
2013-03-02 18:34:00,69.8,24.3,30.02,South,183,13.0,15.0,18,0.00,,,0.00,Wunderground v.1.15,2013-03-03 02:34:00,
2013-03-02 18:40:00,69.8,24.3,30.02,SSW,192,12.0,13.0,18,0.00,,,0.00,Wunderground v.1.15,2013-03-03 02:40:00,
2013-03-02 18:46:00,69.7,24.3,30.02,South,182,13.0,17.0,18,0.00,,,0.00,Wunderground v.1.15,2013-03-03 02:46:00,
2013-03-02 18:52:00,69.6,24.2,30.02,South,176,13.0,15.0,18,0.00,,,0.00,Wunderground v.1.15,2013-03-03 02:52:00,
2013-03-02 18:58:00,69.3,23.9,30.02,South,181,12.0,15.0,18,0.00,,,0.00,Wunderground v.1.15,2013-03-03 02:58:00,
2013-03-02 19:04:00,69.0,25.0,30.02,South,175,13.0,15.0,19,0.00,,,0.00,Wunderground v.1.15,2013-03-03 03:04:00,
2013-03-02 19:10:00,69.0,23.7,30.02,South,176,15.0,17.0,18,0.00,,,0.00,Wunderground v.1.15,2013-03-03 03:10:00,
2013-03-02 19:16:00,69.3,23.9,30.02,SSW,194,17.0,20.0,18,0.00,,,0.00,Wunderground v.1.15,2013-03-03 03:16:00,
2013-03-02 19:22:00,69.5,24.1,30.02,South,178,18.0,24.0,18,0.00,,,0.00,Wunderground v.1.15,2013-03-03 03:22:00,
2013-03-02 19:28:00,69.5,24.1,30.02,South,181,19.0,24.0,18,0.00,,,0.00,Wunderground v.1.15,2013-03-03 03:28:00,
2013-03-02 19:34:00,69.4,24.0,30.02,South,186,19.0,24.0,18,0.00,,,0.00,Wunderground v.1.15,2013-03-03 03:34:00,
2013-03-02 19:40:00,69.3,25.2,30.02,SSW,196,19.0,19.0,19,0.00,,,0.00,Wunderground v.1.15,2013-03-03 03:40:00,
2013-03-02 19:46:00,69.0,25.0,30.02,South,178,18.0,21.0,19,0.00,,,0.00,Wunderground v.1.15,2013-03-03 03:46:00,
2013-03-02 19:52:00,68.6,24.7,30.03,South,182,16.0,17.0,19,0.00,,,0.00,Wunderground v.1.15,2013-03-03 03:52:00,
2013-03-02 19:58:00,68.3,25.6,30.03,South,187,15.0,17.0,20,0.00,,,0.00,Wunderground v.1.15,2013-03-03 03:58:00,
2013-03-02 20:04:00,67.9,25.3,30.03,South,178,15.0,15.0,20,0.00,,,0.00,Wunderground v.1.15,2013-03-03 04:04:00,
2013-03-02 20:10:00,67.5,25.0,30.03,SSW,199,14.0,15.0,20,0.00,,,0.00,Wunderground v.1.15,2013-03-03 04:10:00,
2013-03-02 20:16:00,67.1,25.8,30.03,South,184,13.0,15.0,21,0.00,,,0.00,Wunderground v.1.15,2013-03-03 04:16:00,
2013-03-02 20:22:00,66.7,25.5,30.03,SSW,197,13.0,15.0,21,0.00,,,0.00,Wunderground v.1.15,2013-03-03 04:22:00,
2013-03-02 20:28:00,66.7,25.5,30.03,South,185,13.0,15.0,21,0.00,,,0.00,Wunderground v.1.15,2013-03-03 04:28:00,
2013-03-02 20:34:00,66.5,26.4,30.03,South,180,13.0,14.0,22,0.00,,,0.00,Wunderground v.1.15,2013-03-03 04:34:00,
2013-03-02 20:40:00,66.4,26.4,30.03,South,190,12.0,12.0,22,0.00,,,0.00,Wunderground v.1.15,2013-03-03 04:40:00,
2013-03-02 20:46:00,66.1,26.1,30.03,South,175,11.0,13.0,22,0.00,,,0.00,Wunderground v.1.15,2013-03-03 04:46:00,
2013-03-02 20:52:00,65.7,25.8,30.03,South,184,10.0,12.0,22,0.00,,,0.00,Wunderground v.1.15,2013-03-03 04:52:00,
2013-03-02 20:58:00,65.4,25.5,30.03,South,182,10.0,12.0,22,0.00,,,0.00,Wunderground v.1.15,2013-03-03 04:58:00,
2013-03-02 21:00:00,65.4,25.5,30.03,South,190,11.0,11.0,22,0.00,,,0.00,Wunderground v.1.15,2013-03-03 05:00:00,
2013-03-02 21:02:00,65.5,25.6,30.03,South,186,11.0,11.0,22,0.00,,,0.00,Wunderground v.1.15,2013-03-03 05:02:00,
2013-03-02 21:06:00,65.5,25.6,30.03,South,184,11.0,11.0,22,0.00,,,0.00,Wunderground v.1.15,2013-03-03 05:06:00,
2013-03-02 21:08:00,65.5,25.6,30.04,South,187,12.0,14.0,22,0.00,,,0.00,Wunderground v.1.15,2013-03-03 05:08:00,
2013-03-02 21:14:00,65.5,25.6,30.04,South,182,12.0,12.0,22,0.00,,,0.00,Wunderground v.1.15,2013-03-03 05:14:00,
2013-03-02 21:20:00,65.4,26.6,30.04,SSW,213,11.0,11.0,23,0.00,,,0.00,Wunderground v.1.15,2013-03-03 05:20:00,
2013-03-02 21:26:00,65.2,26.4,30.04,South,191,10.0,11.0,23,0.00,,,0.00,Wunderground v.1.15,2013-03-03 05:26:00,
2013-03-02 21:32:00,65.0,26.3,30.03,SSW,200,11.0,13.0,23,0.00,,,0.00,Wunderground v.1.15,2013-03-03 05:32:00,
2013-03-02 21:38:00,65.0,26.3,30.03,South,188,12.0,13.0,23,0.00,,,0.00,Wunderground v.1.15,2013-03-03 05:38:00,
2013-03-02 21:44:00,64.8,26.1,30.03,South,191,12.0,12.0,23,0.00,,,0.00,Wunderground v.1.15,2013-03-03 05:44:00,
2013-03-02 21:50:00,64.6,25.9,30.03,South,182,12.0,12.0,23,0.00,,,0.00,Wunderground v.1.15,2013-03-03 05:50:00,
2013-03-02 21:56:00,64.5,25.8,30.03,SSW,207,11.0,12.0,23,0.00,,,0.00,Wunderground v.1.15,2013-03-03 05:56:00,
2013-03-02 22:02:00,64.5,25.8,30.03,SSW,192,10.0,15.0,23,0.00,,,0.00,Wunderground v.1.15,2013-03-03 06:02:00,
2013-03-02 22:08:00,64.6,25.9,30.03,SW,224,12.0,15.0,23,0.00,,,0.00,Wunderground v.1.15,2013-03-03 06:08:00,
2013-03-02 22:14:00,64.6,25.9,30.03,South,191,12.0,16.0,23,0.00,,,0.00,Wunderground v.1.15,2013-03-03 06:14:00,
2013-03-02 22:20:00,64.5,25.8,30.03,SSW,192,12.0,14.0,23,0.00,,,0.00,Wunderground v.1.15,2013-03-03 06:20:00,
2013-03-02 22:26:00,64.5,25.8,30.03,SSW,204,12.0,14.0,23,0.00,,,0.00,Wunderground v.1.15,2013-03-03 06:26:00,
2013-03-02 22:32:00,64.3,25.7,30.02,South,179,11.0,11.0,23,0.00,,,0.00,Wunderground v.1.15,2013-03-03 06:32:00,
2013-03-02 22:38:00,64.1,25.5,30.02,SSW,203,9.0,12.0,23,0.00,,,0.00,Wunderground v.1.15,2013-03-03 06:38:00,
2013-03-02 22:44:00,63.8,26.3,30.02,SSW,208,9.0,13.0,24,0.00,,,0.00,Wunderground v.1.15,2013-03-03 06:44:00,
2013-03-02 22:50:00,63.4,25.9,30.02,WSW,252,8.0,8.0,24,0.00,,,0.00,Wunderground v.1.15,2013-03-03 06:50:00,
2013-03-02 22:56:00,62.8,25.4,30.02,WSW,238,7.0,8.0,24,0.00,,,0.00,Wunderground v.1.15,2013-03-03 06:56:00,
2013-03-02 23:02:00,62.6,25.3,30.02,SW,235,9.0,11.0,24,0.00,,,0.00,Wunderground v.1.15,2013-03-03 07:02:00,
2013-03-02 23:08:00,63.0,25.6,30.02,SW,230,11.0,11.0,24,0.00,,,0.00,Wunderground v.1.15,2013-03-03 07:08:00,
2013-03-02 23:14:00,64.1,26.5,30.01,SW,226,14.0,19.0,24,0.00,,,0.00,Wunderground v.1.15,2013-03-03 07:14:00,
2013-03-02 23:20:00,64.9,27.2,30.01,SW,222,15.0,15.0,24,0.00,,,0.00,Wunderground v.1.15,2013-03-03 07:20:00,
2013-03-02 23:26:00,65.2,26.4,30.00,SW,229,14.0,15.0,23,0.00,,,0.00,Wunderground v.1.15,2013-03-03 07:26:00,
2013-03-02 23:32:00,65.5,26.7,30.00,SW,235,15.0,15.0,23,0.00,,,0.00,Wunderground v.1.15,2013-03-03 07:32:00,
2013-03-02 23:38:00,65.6,26.8,30.00,WSW,239,15.0,17.0,23,0.00,,,0.00,Wunderground v.1.15,2013-03-03 07:38:00,
2013-03-02 23:44:00,65.4,26.6,30.00,WSW,238,14.0,16.0,23,0.00,,,0.00,Wunderground v.1.15,2013-03-03 07:44:00,
2013-03-02 23:50:00,65.3,26.5,30.00,SSW,205,13.0,13.0,23,0.00,,,0.00,Wunderground v.1.15,2013-03-03 07:50:00,
2013-03-02 23:56:00,64.7,27.0,30.00,SSW,206,12.0,14.0,24,0.00,,,0.00,Wunderground v.1.15,2013-03-03 07:56:00,